Florennes, Belgium

6:56 PM CET on February 21, 2017 (GMT +0100)
Florennes Air Base

Weather History for EBFS - February, 2013

Change the Weather History Date:

Thursday, February 21, 2013

  Actual Average Record
Temperature  
Mean Temperature 28 °F -  
Max Temperature 32 °F 44 °F 50 °F (2016)
Min Temperature 23 °F 36 °F 23 °F (2013)
Degree Days  
Heating Degree Days 38    
Moisture  
Dew Point 21 °F    
Average Humidity 79    
Maximum Humidity 93    
Minimum Humidity 47    
Precipitation  
Precipitation 0.00 in - - ()
Sea Level Pressure  
Sea Level Pressure 30.11 in    
Wind  
Wind Speed 12 mph ()    
Max Wind Speed 18 mph    
Max Gust Speed 30 mph    
Visibility 6.2 miles    
Events Snow    
Averages and records for this station are not official NWS values.
T = Trace of Precipitation, MM = Missing Value Source: Averaged Metar Reports

Daily Weather History Graph

Daily Weather History Graph

Search for Another Location

Airport or City:

Trip Planner

Search our weather history database for the weather conditions in past years. The results will help you decide how hot, cold, wet, or windy it might be!

Date:

Astronomy

Feb. 21, 2013 Rise Set
Actual Time 7:40 AM CET 6:09 PM CET
Civil Twilight 7:07 AM CET 6:42 PM CET
Nautical Twilight 6:30 AM CET 7:20 PM CET
Astronomical Twilight 5:52 AM CET 7:58 PM CET
Moon 1:53 PM CET 4:51 AM CET
Length of Visible Light 11h 35m
Length of Day
10h 28m
Waxing Gibbous, 82% of the Moon is Illuminated
Feb 21
Waxing Gibbous
Feb 25
Full
Mar 4
Last Quarter
Mar 11
New
Mar 19
First Quarter

Hourly Weather History & Observations

Time (CET) Temp. Windchill Dew Point Humidity Pressure Visibility Wind Dir Wind Speed Gust Speed Precip Events Conditions
12:25 AM 26.6 °F 15.7 °F 21.2 °F 80% 30.18 in 6.2 mi ENE 12.7 mph - N/A   Partly Cloudy
12:55 AM 26.6 °F 16.8 °F 21.2 °F 80% 30.15 in 6.2 mi ENE 10.4 mph - N/A   Partly Cloudy
1:00 AM 26 °F - 22 °F 77% 30.25 in 16 mi ENE 11.2 mph - -   Scattered Clouds
1:25 AM 26.6 °F 16.8 °F 21.2 °F 80% 30.15 in 6.2 mi ENE 10.4 mph - N/A   Partly Cloudy
1:55 AM 26.6 °F 16.8 °F 23.0 °F 86% 30.15 in 6.2 mi ENE 10.4 mph - N/A   Unknown
2:25 AM 26.6 °F 16.2 °F 23.0 °F 86% 30.15 in 6.2 mi NE 11.5 mph - N/A   Clear
3:25 AM 24.8 °F 13.4 °F 21.2 °F 86% 30.15 in 6.2 mi ENE 12.7 mph - N/A   Clear
3:55 AM 24.8 °F 16.9 °F 21.2 °F 86% 30.15 in 6.2 mi ENE 6.9 mph - N/A   Clear
4:00 AM 25 °F - 21 °F 80% 30.23 in 7 mi NE 11.2 mph - -  
4:25 AM 24.8 °F 14.6 °F 23.0 °F 93% 30.15 in 6.2 mi NE 10.4 mph - N/A   Clear
4:55 AM 24.8 °F 16.1 °F 23.0 °F 93% 30.12 in 3.7 mi ENE 8.1 mph - N/A   Scattered Clouds
5:25 AM 24.8 °F 14.6 °F 23.0 °F 93% 30.15 in 4.3 mi NE 10.4 mph - N/A   Mostly Cloudy
5:55 AM 23.0 °F 14.7 °F 21.2 °F 93% 30.12 in 3.7 mi ENE 6.9 mph - N/A   Scattered Clouds
6:21 AM 23.0 °F 11.7 °F 21.2 °F 93% 30.12 in 6.2 mi NE 11.5 mph - N/A   Partly Cloudy
6:25 AM 23.0 °F 11.7 °F 21.2 °F 93% 30.12 in 6.2 mi NE 11.5 mph - N/A   Partly Cloudy
7:00 AM 24 °F - 21 °F 81% 30.21 in 6 mi NE 11.2 mph - -   Scattered Clouds
7:54 AM 23.0 °F 10.6 °F 21.2 °F 93% 30.15 in 4.3 mi NE 13.8 mph - N/A   Partly Cloudy
7:55 AM 23.0 °F 10.6 °F 21.2 °F 93% 30.15 in 4.3 mi NE 13.8 mph - N/A   Partly Cloudy
8:25 AM 24.8 °F 12.9 °F 21.2 °F 86% 30.15 in 3.7 mi ENE 13.8 mph - N/A   Partly Cloudy
8:55 AM 24.8 °F 12.9 °F 21.2 °F 86% 30.15 in 4.3 mi ENE 13.8 mph - N/A   Partly Cloudy
9:08 AM 24.8 °F 12.9 °F 21.2 °F 86% 30.15 in 5.0 mi NE 13.8 mph - N/A   Partly Cloudy
9:25 AM 26.6 °F 14.7 °F 21.2 °F 80% 30.15 in 5.6 mi ENE 15.0 mph - N/A   Partly Cloudy
9:55 AM 26.6 °F 14.7 °F 21.2 °F 80% 30.15 in 6.2 mi ENE 15.0 mph - N/A   Partly Cloudy
10:00 AM 27 °F - 21 °F 70% 30.22 in 9 mi ENE 15.7 mph - -   Scattered Clouds
10:25 AM 26.6 °F 14.3 °F 19.4 °F 74% 30.15 in 6.2 mi ENE 16.1 mph - N/A   Partly Cloudy
10:55 AM 28.4 °F 17.0 °F 19.4 °F 69% 30.12 in 6.2 mi ENE 15.0 mph - N/A   Partly Cloudy
11:25 AM 30.2 °F 18.1 °F 19.4 °F 64% 30.12 in 6.2 mi ENE 18.4 mph - N/A   Partly Cloudy
11:55 AM 28.4 °F 16.2 °F 17.6 °F 64% 30.15 in 6.2 mi East 17.3 mph - N/A   Partly Cloudy
12:25 PM 30.2 °F 18.1 °F 15.8 °F 55% 30.15 in 6.2 mi East 18.4 mph 29.9 mph N/A   Partly Cloudy
12:55 PM 28.4 °F 16.2 °F 15.8 °F 59% 30.12 in 6.2 mi ENE 17.3 mph - N/A   Scattered Clouds
1:00 PM 29 °F - 17 °F 47% 30.19 in 16 mi ENE 17.9 mph - -   Partly Cloudy
1:25 PM 30.2 °F 18.9 °F 15.8 °F 55% 30.12 in 6.2 mi ENE 16.1 mph - N/A   Scattered Clouds
1:55 PM 30.2 °F 18.9 °F 15.8 °F 55% 30.09 in 6.2 mi ENE 16.1 mph - N/A   Scattered Clouds
2:25 PM 32.0 °F 21.6 °F 17.6 °F 55% 30.09 in 6.2 mi ENE 15.0 mph - N/A   Scattered Clouds
2:50 PM 30.2 °F 18.9 °F 19.4 °F 64% 30.09 in 6.2 mi ENE 16.1 mph - N/A Snow Light Snow Showers
3:55 PM 30.2 °F 21.9 °F 23.0 °F 75% 30.09 in 6.2 mi NE 9.2 mph - N/A   Partly Cloudy
4:00 PM 30 °F - 23 °F 64% 30.15 in 12 mi NE 13.4 mph - -   Partly Cloudy
4:21 PM 30.2 °F 19.8 °F 23.0 °F 75% 30.06 in 6.2 mi NE 13.8 mph - N/A Snow Light Snow Showers
4:25 PM 28.4 °F 17.0 °F 21.2 °F 74% 30.06 in 6.2 mi NE 15.0 mph - N/A Snow Light Snow Showers
4:53 PM 28.4 °F 18.5 °F 21.2 °F 74% 30.06 in 6.2 mi NE 11.5 mph - N/A Snow Light Snow Showers
4:55 PM 28.4 °F 19.1 °F 23.0 °F 80% 30.06 in 6.2 mi NE 10.4 mph - N/A Snow Light Snow Showers
5:04 PM 28.4 °F 17.5 °F 21.2 °F 74% 30.06 in 4.3 mi ENE 13.8 mph - N/A Snow Light Snow Showers
5:10 PM 28.4 °F 17.0 °F 23.0 °F 80% 30.06 in 2.8 mi NE 15.0 mph - N/A Snow Light Snow Showers
5:17 PM 26.6 °F 13.8 °F 23.0 °F 86% 30.06 in 3.1 mi NE 17.3 mph - N/A Snow Light Snow Showers
5:25 PM 28.4 °F 17.5 °F 23.0 °F 80% 30.06 in 6.2 mi ENE 13.8 mph - N/A Snow Light Snow Showers
5:42 PM 28.4 °F 17.5 °F 23.0 °F 80% 30.06 in 6.2 mi ENE 13.8 mph - N/A Snow Light Snow Showers
5:55 PM 28.4 °F 16.6 °F 21.2 °F 74% 30.06 in 6.2 mi ENE 16.1 mph - N/A   Scattered Clouds
6:08 PM 26.6 °F 16.2 °F 21.2 °F 80% 30.06 in 6.2 mi NE 11.5 mph - N/A Snow Light Snow Showers
6:55 PM 26.6 °F 16.2 °F 21.2 °F 80% 30.06 in 6.2 mi ENE 11.5 mph - N/A Snow Light Snow Showers
7:00 PM 28 °F - 22 °F 70% 30.14 in 12 mi ENE 11.2 mph - - Snow Light Snow Showers
7:30 PM 26.6 °F 16.2 °F 21.2 °F 80% 30.06 in 6.2 mi NE 11.5 mph - N/A Snow Light Snow Showers
7:55 PM 26.6 °F 15.2 °F 21.2 °F 80% 30.06 in 6.2 mi ENE 13.8 mph - N/A Snow Light Snow Showers
7:56 PM 26.6 °F 15.7 °F 21.2 °F 80% 30.06 in 6.2 mi ENE 12.7 mph - N/A Snow Light Snow Showers
8:25 PM 26.6 °F 16.2 °F 23.0 °F 86% 30.06 in 6.2 mi ENE 11.5 mph - N/A   Scattered Clouds
8:42 PM 26.6 °F 14.7 °F 23.0 °F 86% 30.06 in 6.2 mi ENE 15.0 mph - N/A Snow Light Snow Showers
8:55 PM 26.6 °F 14.7 °F 23.0 °F 86% 30.06 in 6.2 mi ENE 15.0 mph - N/A Snow Light Snow Showers
9:25 PM 26.6 °F 15.7 °F 23.0 °F 86% 30.06 in 6.2 mi ENE 12.7 mph - N/A   Mostly Cloudy
9:55 PM 26.6 °F 15.2 °F 23.0 °F 86% 30.06 in 3.7 mi NE 13.8 mph - N/A Snow Light Snow Showers
9:56 PM 26.6 °F 15.7 °F 23.0 °F 86% 30.06 in 3.7 mi NE 12.7 mph - N/A Snow Light Snow Showers
10:00 PM 27 °F - 23 °F 79% 30.13 in 4 mi NE 13.4 mph - - Snow Light Snow Showers
10:25 PM 26.6 °F 15.2 °F 23.0 °F 86% 30.04 in 6.2 mi ENE 13.8 mph - N/A   Mostly Cloudy
10:53 PM 24.8 °F 14.6 °F 21.2 °F 86% 30.04 in 6.2 mi NE 10.4 mph - N/A Snow Light Snow Showers
11:25 PM 26.6 °F 15.7 °F 23.0 °F 86% 30.04 in 6.2 mi NE 12.7 mph - N/A   Mostly Cloudy
11:45 PM 26.6 °F 15.2 °F 21.2 °F 80% 30.04 in 6.2 mi ENE 13.8 mph - N/A Snow Light Snow Showers
11:55 PM 26.6 °F 14.3 °F 21.2 °F 80% 30.04 in 6.2 mi ENE 16.1 mph - N/A   Mostly Cloudy